,,,PA_Meas_PMT16A,,PR_Meas_QMR101_102,,RH_Meas_QMH101,,SR_Meas_QMS101,,TA_Meas_QMH101,,GenWind,,GenWind,
date,time,status,PA,status,PR,status,RH,status,SR,status,TA,status,DirAvg,status,SpdAvg,
2011-06-12, 00:00:05,VALID,1000.22,VALID,0,VALID,93.0585,VALID,0,VALID,22.7842,VALID,112,VALID,0,
2011-06-12, 00:01:05,VALID,1000.21,VALID,0,VALID,93.0356,VALID,0,VALID,22.7842,VALID,112,VALID,0,
2011-06-12, 00:02:05,VALID,1000.16,VALID,0,VALID,93.0508,VALID,0,VALID,22.7842,VALID,112,VALID,0,
2011-06-12, 00:03:05,VALID,1000.17,VALID,0,VALID,93.0508,VALID,0,VALID,22.8037,VALID,112,VALID,0.450391,
2011-06-12, 00:04:05,VALID,1000.17,VALID,0,VALID,93.0737,VALID,0,VALID,22.8037,VALID,112,VALID,0.521484,
2011-06-12, 00:05:05,VALID,1000.18,VALID,0,VALID,93.0737,VALID,0,VALID,22.8445,VALID,112,VALID,0.648438,
2011-06-12, 00:06:05,VALID,1000.16,VALID,0,VALID,93.0585,VALID,0,VALID,22.8427,VALID,112,VALID,0.661719,
2011-06-12, 00:07:05,VALID,1000.13,VALID,0,VALID,93.028,VALID,0,VALID,22.8818,VALID,112,VALID,0.729297,
2011-06-12, 00:08:05,VALID,1000.13,VALID,0,VALID,92.9898,VALID,0,VALID,22.9208,VALID,112,VALID,0.614844,
2011-06-12, 00:09:05,VALID,1000.12,VALID,0,VALID,92.944,VALID,0,VALID,22.9208,VALID,113,VALID,0.684375,
2011-06-12, 00:10:05,VALID,1000.05,VALID,0,VALID,92.8754,VALID,0,VALID,22.9598,VALID,113,VALID,0.602734,
2011-06-12, 00:11:05,VALID,1000.1,VALID,0,VALID,92.8525,VALID,0,VALID,22.9793,VALID,113,VALID,0.483984,
2011-06-12, 00:12:05,VALID,1000.07,VALID,0,VALID,92.7762,VALID,0,VALID,22.9793,VALID,113,VALID,0.295312,
2011-06-12, 00:13:05,VALID,1000.07,VALID,0,VALID,92.7151,VALID,0,VALID,22.9988,VALID,113,VALID,0.181641,
2011-06-12, 00:14:05,VALID,1000.08,VALID,0,VALID,92.6694,VALID,0,VALID,23.0183,VALID,113,VALID,0.248437,
2011-06-12, 00:15:05,VALID,1000.1,VALID,0,VALID,92.6388,VALID,0,VALID,23.0183,VALID,113,VALID,0.377344,
2011-06-12, 00:16:05,VALID,1000.06,VALID,0,VALID,92.6236,VALID,0,VALID,23.0183,VALID,113,VALID,0.496484,
2011-06-12, 00:17:05,VALID,1000.05,VALID,0,VALID,92.6007,VALID,0,VALID,23.0378,VALID,112,VALID,0.589063,
2011-06-12, 00:18:05,VALID,1000.08,VALID,0,VALID,92.5778,VALID,0,VALID,23.0573,VALID,108,VALID,0.545703,
2011-06-12, 00:19:05,VALID,1000.06,VALID,0,VALID,92.5397,VALID,0,VALID,23.0378,VALID,100,VALID,0.832812,
2011-06-12, 00:20:05,VALID,1000.07,VALID,0,VALID,92.5397,VALID,0,VALID,23.0573,VALID,96,VALID,0.785547,
2011-06-12, 00:21:05,VALID,1000.02,VALID,0,VALID,92.5168,VALID,0,VALID,23.0573,VALID,75,VALID,0.715234,
2011-06-12, 00:22:05,VALID,1000.04,VALID,0,VALID,92.4939,VALID,0,VALID,23.0573,VALID,75,VALID,0.626562,
2011-06-12, 00:23:05,VALID,1000,VALID,0,VALID,92.4481,VALID,0,VALID,23.0378,VALID,56,VALID,0.580078,
2011-06-12, 00:24:05,VALID,999.979,VALID,0,VALID,92.4405,VALID,0,VALID,23.0378,VALID,54,VALID,0.501172,
2011-06-12, 00:25:05,VALID,999.943,VALID,0,VALID,92.4023,VALID,0,VALID,23.0183,VALID,54,VALID,0.614062,
2011-06-12, 00:26:05,VALID,999.896,VALID,0,VALID,92.41,VALID,0,VALID,22.9988,VALID,54,VALID,0.449609,
2011-06-12, 00:27:05,VALID,999.881,VALID,0,VALID,92.4176,VALID,0,VALID,22.9988,VALID,54,VALID,0.225,
2011-06-12, 00:28:05,VALID,999.841,VALID,0,VALID,92.4405,VALID,0,VALID,22.9793,VALID,54,VALID,0.233203,
2011-06-12, 00:29:05,VALID,999.834,VALID,0,VALID,92.4252,VALID,0,VALID,22.9581,VALID,54,VALID,0.05,
2011-06-12, 00:30:05,VALID,999.803,VALID,0,VALID,92.4405,VALID,0,VALID,22.9793,VALID,54,VALID,0.302344,
2011-06-12, 00:31:05,VALID,999.764,VALID,0,VALID,92.4634,VALID,0,VALID,22.9793,VALID,54,VALID,0.00703125,
2011-06-12, 00:32:05,VALID,999.733,VALID,0,VALID,92.4863,VALID,0,VALID,22.9598,VALID,54,VALID,0.248047,
2011-06-12, 00:33:05,VALID,999.713,VALID,0,VALID,92.5168,VALID,0,VALID,22.9403,VALID,54,VALID,0.3,
2011-06-12, 00:34:05,VALID,999.699,VALID,0,VALID,92.5473,VALID,0,VALID,22.9615,VALID,54,VALID,0.376172,
2011-06-12, 00:35:05,VALID,999.681,VALID,0,VALID,92.5702,VALID,0,VALID,22.9598,VALID,54,VALID,0.491406,
2011-06-12, 00:36:05,VALID,999.667,VALID,0,VALID,92.5778,VALID,0,VALID,22.9598,VALID,125,VALID,0.560547,
2011-06-12, 00:37:05,VALID,999.642,VALID,0,VALID,92.532,VALID,0,VALID,22.9598,VALID,133,VALID,0.432031,
2011-06-12, 00:38:05,VALID,999.653,VALID,0,VALID,92.4786,VALID,0,VALID,22.9793,VALID,137,VALID,0.720703,
2011-06-12, 00:39:05,VALID,999.651,VALID,0,VALID,92.3794,VALID,0,VALID,23.0183,VALID,137,VALID,0.641797,
2011-06-12, 00:40:05,VALID,999.619,VALID,0,VALID,92.2955,VALID,0,VALID,23.0378,VALID,137,VALID,0.601563,
2011-06-12, 00:41:05,VALID,999.645,VALID,0,VALID,92.1734,VALID,0,VALID,23.0786,VALID,137,VALID,0.477734,
2011-06-12, 00:42:05,VALID,999.618,VALID,0,VALID,92.0437,VALID,0,VALID,23.0573,VALID,137,VALID,0.395312,
2011-06-12, 00:43:05,VALID,999.63,VALID,0,VALID,91.9445,VALID,0,VALID,23.0786,VALID,137,VALID,0.592969,
2011-06-12, 00:44:05,VALID,999.64,VALID,0,VALID,91.8683,VALID,0,VALID,23.0769,VALID,137,VALID,0.424609,
2011-06-12, 00:45:05,VALID,999.653,VALID,0,VALID,91.7767,VALID,0,VALID,23.0769,VALID,137,VALID,0.234766,
2011-06-12, 00:46:05,VALID,999.648,VALID,0,VALID,91.6928,VALID,0,VALID,23.0964,VALID,137,VALID,0,
2011-06-12, 00:47:05,VALID,999.619,VALID,0,VALID,91.6012,VALID,0,VALID,23.0964,VALID,137,VALID,0.530469,
2011-06-12, 00:48:05,VALID,999.615,VALID,0,VALID,91.6012,VALID,0,VALID,23.1159,VALID,137,VALID,0.436328,
2011-06-12, 00:49:05,VALID,999.573,VALID,0,VALID,91.5478,VALID,0,VALID,23.1354,VALID,111,VALID,0.636328,
2011-06-12, 00:50:05,VALID,999.538,VALID,0,VALID,91.502,VALID,0,VALID,23.1354,VALID,98,VALID,1.03398,
2011-06-12, 00:51:05,VALID,999.548,VALID,0,VALID,91.4486,VALID,0,VALID,23.1549,VALID,97,VALID,0.698828,
2011-06-12, 00:52:05,VALID,999.526,VALID,0,VALID,91.4486,VALID,0,VALID,23.1531,VALID,98,VALID,0.690234,
2011-06-12, 00:53:05,VALID,999.517,VALID,0,VALID,91.4257,VALID,0,VALID,23.1744,VALID,103,VALID,0.711328,
2011-06-12, 00:54:05,VALID,999.527,VALID,0,VALID,91.4639,VALID,0,VALID,23.1744,VALID,103,VALID,0.662891,
2011-06-12, 00:55:05,VALID,999.506,VALID,0,VALID,91.5249,VALID,0,VALID,23.1744,VALID,103,VALID,0.449219,
2011-06-12, 00:56:05,VALID,999.519,VALID,0,VALID,91.5631,VALID,0,VALID,23.1744,VALID,103,VALID,0.631641,
2011-06-12, 00:57:05,VALID,999.498,VALID,0,VALID,91.647,VALID,0,VALID,23.1744,VALID,97,VALID,0.746875,
2011-06-12, 00:58:05,VALID,999.518,VALID,0,VALID,91.7233,VALID,0,VALID,23.1744,VALID,80,VALID,0.911719,
2011-06-12, 00:59:05,VALID,999.501,VALID,0,VALID,91.7538,VALID,0,VALID,23.1549,VALID,78,VALID,0.728125,
2011-06-12, 01:00:05,VALID,999.497,VALID,0,VALID,91.7309,VALID,0,VALID,23.1549,VALID,78,VALID,0.459375,
2011-06-12, 01:01:05,VALID,999.51,VALID,0,VALID,91.708,VALID,0,VALID,23.1354,VALID,78,VALID,0.489844,
2011-06-12, 01:02:05,VALID,999.505,VALID,0,VALID,91.7843,VALID,0,VALID,23.1354,VALID,78,VALID,0.427734,
2011-06-12, 01:03:05,VALID,999.481,VALID,0,VALID,91.8148,VALID,0,VALID,23.1159,VALID,78,VALID,0.425781,
2011-06-12, 01:04:05,VALID,999.51,VALID,0,VALID,91.9064,VALID,0,VALID,23.1159,VALID,78,VALID,0.271875,
2011-06-12, 01:05:04,VALID,999.495,VALID,0,VALID,91.9674,VALID,0,VALID,23.1159,VALID,79,VALID,0.332031,
2011-06-12, 01:06:04,VALID,999.467,VALID,0,VALID,92.0056,VALID,0,VALID,23.0964,VALID,79,VALID,0.414844,
2011-06-12, 01:07:04,VALID,999.455,VALID,0,VALID,92.0132,VALID,0,VALID,23.0751,VALID,89,VALID,0.646484,
2011-06-12, 01:08:04,VALID,999.429,VALID,0,VALID,92.0437,VALID,0,VALID,23.0769,VALID,107,VALID,0.53125,
2011-06-12, 01:09:04,VALID,999.399,VALID,0,VALID,92.0285,VALID,0,VALID,23.0556,VALID,107,VALID,0.494531,
2011-06-12, 01:10:04,VALID,999.419,VALID,0,VALID,91.998,VALID,0,VALID,23.0769,VALID,107,VALID,0.327344,
2011-06-12, 01:11:04,VALID,999.409,VALID,0,VALID,91.9751,VALID,0,VALID,23.0769,VALID,107,VALID,0.2375,
2011-06-12, 01:12:04,VALID,999.403,VALID,0,VALID,91.9751,VALID,0,VALID,23.0361,VALID,107,VALID,0,
2011-06-12, 01:13:04,VALID,999.41,VALID,0,VALID,91.9827,VALID,0,VALID,23.0573,VALID,107,VALID,0.228516,
2011-06-12, 01:14:04,VALID,999.38,VALID,0,VALID,92.0209,VALID,0,VALID,23.0556,VALID,107,VALID,0.427734,
2011-06-12, 01:15:04,VALID,999.413,VALID,0,VALID,92.0285,VALID,0,VALID,23.0769,VALID,121,VALID,0.0503906,
2011-06-12, 01:16:04,VALID,999.379,VALID,0,VALID,92.0056,VALID,0,VALID,23.0981,VALID,121,VALID,0,
2011-06-12, 01:17:04,VALID,999.342,VALID,0,VALID,91.9293,VALID,0,VALID,23.0981,VALID,88,VALID,0.410937,
2011-06-12, 01:18:04,VALID,999.326,VALID,0,VALID,91.9217,VALID,0,VALID,23.0786,VALID,61,VALID,0.563281,
2011-06-12, 01:19:04,VALID,999.327,VALID,0,VALID,91.8454,VALID,0,VALID,23.0786,VALID,56,VALID,0.908984,
2011-06-12, 01:20:04,VALID,999.323,VALID,0,VALID,91.792,VALID,0,VALID,23.0981,VALID,53,VALID,1.27578,
2011-06-12, 01:21:04,VALID,999.317,VALID,0,VALID,91.7385,VALID,0,VALID,23.1176,VALID,46,VALID,0.946484,
2011-06-12, 01:22:04,VALID,999.329,VALID,0,VALID,91.6851,VALID,0,VALID,23.1176,VALID,53,VALID,0.616406,
2011-06-12, 01:23:04,VALID,999.296,VALID,0,VALID,91.6851,VALID,0,VALID,23.0981,VALID,53,VALID,0.597266,
2011-06-12, 01:24:04,VALID,999.292,VALID,0,VALID,91.647,VALID,0,VALID,23.0981,VALID,60,VALID,0.721094,
2011-06-12, 01:25:04,VALID,999.284,VALID,0,VALID,91.586,VALID,0,VALID,23.0981,VALID,76,VALID,0.533203,
2011-06-12, 01:26:04,VALID,999.276,VALID,0,VALID,91.586,VALID,0,VALID,23.0981,VALID,76,VALID,0.0636719,
2011-06-12, 01:27:04,VALID,999.274,VALID,0,VALID,91.586,VALID,0,VALID,23.1389,VALID,76,VALID,0,
2011-06-12, 01:28:04,VALID,999.262,VALID,0,VALID,91.5478,VALID,0,VALID,23.0981,VALID,76,VALID,0,
2011-06-12, 01:29:04,VALID,999.258,VALID,0,VALID,91.5783,VALID,0,VALID,23.1194,VALID,76,VALID,0,
2011-06-12, 01:30:04,VALID,999.273,VALID,0,VALID,91.6012,VALID,0,VALID,23.1159,VALID,76,VALID,0,
2011-06-12, 01:31:04,VALID,999.237,VALID,0,VALID,91.6546,VALID,0,VALID,23.0964,VALID,76,VALID,0,
2011-06-12, 01:32:04,VALID,999.212,VALID,0,VALID,91.6928,VALID,0,VALID,23.1159,VALID,16,VALID,0.101953,
2011-06-12, 01:33:04,VALID,999.214,VALID,0,VALID,91.7157,VALID,0,VALID,23.1159,VALID,9,VALID,0.58125,
2011-06-12, 01:34:04,VALID,999.179,VALID,0,VALID,91.7233,VALID,0,VALID,23.1159,VALID,9,VALID,0.487891,
2011-06-12, 01:35:04,VALID,999.169,VALID,0,VALID,91.708,VALID,0.112286,VALID,23.0946,VALID,9,VALID,0.359766,
2011-06-12, 01:36:04,VALID,999.169,VALID,0,VALID,91.7004,VALID,0,VALID,23.0964,VALID,9,VALID,0.311719,
2011-06-12, 01:37:04,VALID,999.16,VALID,0,VALID,91.708,VALID,0,VALID,23.0964,VALID,9,VALID,0.269531,
2011-06-12, 01:38:04,VALID,999.18,VALID,0,VALID,91.7157,VALID,0,VALID,23.0964,VALID,9,VALID,0.196094,
2011-06-12, 01:39:04,VALID,999.143,VALID,0,VALID,91.6928,VALID,0,VALID,23.0964,VALID,9,VALID,0.255469,
2011-06-12, 01:40:04,VALID,999.132,VALID,0,VALID,91.7309,VALID,0,VALID,23.0964,VALID,9,VALID,0.454297,
2011-06-12, 01:41:04,VALID,999.148,VALID,0,VALID,91.8225,VALID,0,VALID,23.0946,VALID,8,VALID,0.724609,
2011-06-12, 01:42:04,VALID,999.162,VALID,0,VALID,91.8454,VALID,0,VALID,23.0964,VALID,357,VALID,0.790234,
2011-06-12, 01:43:04,VALID,999.145,VALID,0,VALID,91.8988,VALID,0,VALID,23.0964,VALID,357,VALID,0.640234,
2011-06-12, 01:44:04,VALID,999.138,VALID,0,VALID,91.9445,VALID,0,VALID,23.0769,VALID,357,VALID,0.300391,
2011-06-12, 01:45:04,VALID,999.137,VALID,0,VALID,91.9903,VALID,0,VALID,23.0573,VALID,357,VALID,0,
2011-06-12, 01:46:04,VALID,999.122,VALID,0,VALID,92.0132,VALID,0,VALID,23.0166,VALID,357,VALID,0,
2011-06-12, 01:47:04,VALID,999.112,VALID,0,VALID,91.9827,VALID,0,VALID,23.0573,VALID,357,VALID,0,
2011-06-12, 01:48:04,VALID,999.11,VALID,0,VALID,91.9217,VALID,0,VALID,23.0378,VALID,357,VALID,0,
2011-06-12, 01:49:04,VALID,999.128,VALID,0,VALID,91.8454,VALID,0.112286,VALID,23.0573,VALID,357,VALID,0,
2011-06-12, 01:50:04,VALID,999.087,VALID,0,VALID,91.7462,VALID,0,VALID,23.0166,VALID,357,VALID,0,
2011-06-12, 01:51:04,VALID,999.124,VALID,0,VALID,91.6317,VALID,0,VALID,23.0378,VALID,357,VALID,0,
2011-06-12, 01:52:04,VALID,999.118,VALID,0,VALID,91.4868,VALID,0,VALID,23.0361,VALID,357,VALID,0,
2011-06-12, 01:53:04,VALID,999.119,VALID,0,VALID,91.2808,VALID,0,VALID,23.0361,VALID,357,VALID,0,
2011-06-12, 01:54:04,VALID,999.139,VALID,0,VALID,91.1358,VALID,0,VALID,23.0556,VALID,357,VALID,0,
2011-06-12, 01:55:04,VALID,999.088,VALID,0,VALID,91.0824,VALID,0,VALID,23.0769,VALID,27,VALID,0.165234,
2011-06-12, 01:56:04,VALID,999.098,VALID,0,VALID,91.09,VALID,0,VALID,23.0556,VALID,105,VALID,0.946484,
2011-06-12, 01:57:04,VALID,999.102,VALID,0,VALID,91.1282,VALID,0,VALID,23.0769,VALID,114,VALID,1.00977,
2011-06-12, 01:58:04,VALID,999.104,VALID,0,VALID,91.1511,VALID,0,VALID,23.0556,VALID,114,VALID,1.03555,
2011-06-12, 01:59:04,VALID,999.116,VALID,0,VALID,91.1282,VALID,0,VALID,23.0769,VALID,120,VALID,1.04336,
2011-06-12, 02:00:04,VALID,999.133,VALID,0,VALID,91.0824,VALID,0,VALID,23.0964,VALID,128,VALID,0.991797,
2011-06-12, 02:01:04,VALID,999.113,VALID,0,VALID,91.0443,VALID,0,VALID,23.0946,VALID,128,VALID,0.892969,
2011-06-12, 02:02:04,VALID,999.107,VALID,0,VALID,91.0214,VALID,0,VALID,23.1159,VALID,128,VALID,0.724219,
2011-06-12, 02:03:04,VALID,999.096,VALID,0,VALID,90.9756,VALID,0,VALID,23.1141,VALID,128,VALID,0.538672,
2011-06-12, 02:04:04,VALID,999.119,VALID,0,VALID,90.8993,VALID,0,VALID,23.1141,VALID,128,VALID,0.396484,
2011-06-12, 02:05:04,VALID,999.106,VALID,0,VALID,90.8001,VALID,0,VALID,23.1354,VALID,128,VALID,0.440625,
2011-06-12, 02:06:04,VALID,999.139,VALID,0,VALID,90.7085,VALID,0,VALID,23.1549,VALID,128,VALID,0.380078,
2011-06-12, 02:07:04,VALID,999.146,VALID,0,VALID,90.6017,VALID,0,VALID,23.1549,VALID,128,VALID,0.0734375,
2011-06-12, 02:08:04,VALID,999.156,VALID,0,VALID,90.4797,VALID,0,VALID,23.1744,VALID,128,VALID,0,
2011-06-12, 02:09:04,VALID,999.136,VALID,0,VALID,90.4034,VALID,0,VALID,23.1531,VALID,128,VALID,0,
2011-06-12, 02:10:04,VALID,999.14,VALID,0,VALID,90.3576,VALID,0,VALID,23.1939,VALID,128,VALID,0.216406,
2011-06-12, 02:11:04,VALID,999.137,VALID,0,VALID,90.266,VALID,0,VALID,23.1939,VALID,128,VALID,0,
2011-06-12, 02:12:04,VALID,999.11,VALID,0,VALID,90.1363,VALID,0,VALID,23.1744,VALID,128,VALID,0,
2011-06-12, 02:13:04,VALID,999.08,VALID,0,VALID,90.0753,VALID,0,VALID,23.1939,VALID,128,VALID,0,
2011-06-12, 02:14:04,VALID,999.091,VALID,0,VALID,90.1134,VALID,0,VALID,23.2134,VALID,128,VALID,0.346484,
2011-06-12, 02:15:04,VALID,999.055,VALID,0,VALID,90.1592,VALID,0,VALID,23.1939,VALID,114,VALID,0.598047,
2011-06-12, 02:16:04,VALID,999.037,VALID,0,VALID,90.1134,VALID,0,VALID,23.2134,VALID,110,VALID,0.675391,
2011-06-12, 02:17:04,VALID,999.04,VALID,0,VALID,90.0524,VALID,0,VALID,23.2329,VALID,110,VALID,0.338281,
2011-06-12, 02:18:04,VALID,999.044,VALID,0,VALID,90.0753,VALID,0,VALID,23.2329,VALID,110,VALID,0,
2011-06-12, 02:19:04,VALID,999.037,VALID,0,VALID,90.1211,VALID,0,VALID,23.2117,VALID,110,VALID,0,
2011-06-12, 02:20:04,VALID,999.024,VALID,0,VALID,90.1668,VALID,0,VALID,23.2329,VALID,110,VALID,0,
2011-06-12, 02:21:04,VALID,999.039,VALID,0,VALID,90.2431,VALID,0,VALID,23.2329,VALID,110,VALID,0,
2011-06-12, 02:22:04,VALID,999.055,VALID,0,VALID,90.3118,VALID,0,VALID,23.2329,VALID,110,VALID,0,
2011-06-12, 02:23:04,VALID,999.075,VALID,0,VALID,90.4339,VALID,0,VALID,23.2134,VALID,110,VALID,0,
2011-06-12, 02:24:04,VALID,999.096,VALID,0,VALID,90.4873,VALID,0,VALID,23.1921,VALID,110,VALID,0,
2011-06-12, 02:25:04,VALID,999.076,VALID,0,VALID,90.5483,VALID,0,VALID,23.1939,VALID,110,VALID,0,
2011-06-12, 02:26:04,VALID,999.081,VALID,0,VALID,90.5407,VALID,0,VALID,23.1939,VALID,110,VALID,0,
2011-06-12, 02:27:04,VALID,999.051,VALID,0,VALID,90.4873,VALID,0,VALID,23.1726,VALID,110,VALID,0,
2011-06-12, 02:28:04,VALID,999.041,VALID,0,VALID,90.3728,VALID,0,VALID,23.1939,VALID,110,VALID,0.0988281,
2011-06-12, 02:29:04,VALID,999.07,VALID,0,VALID,90.3194,VALID,0,VALID,23.2134,VALID,110,VALID,0,
2011-06-12, 02:30:04,VALID,999.041,VALID,0,VALID,90.3805,VALID,0,VALID,23.2329,VALID,110,VALID,0.519141,
2011-06-12, 02:31:04,VALID,999.031,VALID,0,VALID,90.4949,VALID,0,VALID,23.2329,VALID,110,VALID,0.66875,
2011-06-12, 02:32:04,VALID,999.056,VALID,0,VALID,90.6094,VALID,0,VALID,23.2117,VALID,110,VALID,0.864844,
2011-06-12, 02:33:04,VALID,999.002,VALID,0,VALID,90.7238,VALID,0,VALID,23.2134,VALID,110,VALID,0.944531,
2011-06-12, 02:34:04,VALID,999.015,VALID,0,VALID,90.7238,VALID,0,VALID,23.1939,VALID,110,VALID,0.971484,
2011-06-12, 02:35:04,VALID,999.026,VALID,0,VALID,90.7391,VALID,0,VALID,23.2134,VALID,110,VALID,0.68125,
2011-06-12, 02:36:04,VALID,999.058,VALID,0,VALID,90.7772,VALID,0,VALID,23.1921,VALID,110,VALID,0.657422,
2011-06-12, 02:37:04,VALID,999.044,VALID,0,VALID,90.7696,VALID,0,VALID,23.1939,VALID,110,VALID,0.614453,
2011-06-12, 02:38:04,VALID,999.079,VALID,0,VALID,90.6475,VALID,0,VALID,23.1744,VALID,107,VALID,0.3625,
2011-06-12, 02:39:04,VALID,999.113,VALID,0,VALID,90.5636,VALID,0,VALID,23.1744,VALID,107,VALID,0.269922,
2011-06-12, 02:40:04,VALID,999.143,VALID,0,VALID,90.4873,VALID,0,VALID,23.1726,VALID,107,VALID,0.474609,
2011-06-12, 02:41:04,VALID,999.131,VALID,0,VALID,90.4186,VALID,0,VALID,23.1939,VALID,107,VALID,0.246484,
2011-06-12, 02:42:04,VALID,999.093,VALID,0,VALID,90.411,VALID,0,VALID,23.1726,VALID,107,VALID,0.452344,
2011-06-12, 02:43:04,VALID,999.125,VALID,0,VALID,90.4644,VALID,0,VALID,23.2134,VALID,107,VALID,0.335938,
2011-06-12, 02:44:04,VALID,999.114,VALID,0,VALID,90.5483,VALID,0,VALID,23.2134,VALID,107,VALID,0.3,
2011-06-12, 02:45:04,VALID,999.107,VALID,0,VALID,90.6628,VALID,0,VALID,23.2134,VALID,107,VALID,0.446875,
2011-06-12, 02:46:04,VALID,999.117,VALID,0,VALID,90.7391,VALID,0,VALID,23.2134,VALID,107,VALID,0.269922,
2011-06-12, 02:47:04,VALID,999.121,VALID,0,VALID,90.8688,VALID,0.112286,VALID,23.2329,VALID,107,VALID,0.149219,
2011-06-12, 02:48:04,VALID,999.121,VALID,0,VALID,90.9451,VALID,0,VALID,23.1921,VALID,107,VALID,0.0121094,
2011-06-12, 02:49:04,VALID,999.109,VALID,0,VALID,91.1129,VALID,0,VALID,23.1921,VALID,107,VALID,0,
2011-06-12, 02:50:04,VALID,999.101,VALID,0,VALID,91.2274,VALID,0,VALID,23.1921,VALID,106,VALID,0,
2011-06-12, 02:51:04,VALID,999.103,VALID,0,VALID,91.3113,VALID,0,VALID,23.2134,VALID,106,VALID,0,
2011-06-12, 02:52:04,VALID,999.115,VALID,0,VALID,91.4105,VALID,0,VALID,23.1726,VALID,106,VALID,0,
2011-06-12, 02:53:04,VALID,999.12,VALID,0,VALID,91.4868,VALID,0,VALID,23.1744,VALID,106,VALID,0,
2011-06-12, 02:54:04,VALID,999.113,VALID,0,VALID,91.5478,VALID,0,VALID,23.1354,VALID,106,VALID,0,
2011-06-12, 02:55:04,VALID,999.125,VALID,0,VALID,91.5936,VALID,0,VALID,23.1141,VALID,106,VALID,0,
2011-06-12, 02:56:04,VALID,999.115,VALID,0,VALID,91.6394,VALID,0,VALID,23.1159,VALID,97,VALID,0,
2011-06-12, 02:57:04,VALID,999.118,VALID,0,VALID,91.6394,VALID,0,VALID,23.1159,VALID,97,VALID,0,
2011-06-12, 02:58:04,VALID,999.152,VALID,0,VALID,91.6546,VALID,0,VALID,23.0964,VALID,97,VALID,0,
2011-06-12, 02:59:04,VALID,999.159,VALID,0,VALID,91.6623,VALID,0,VALID,23.0964,VALID,53,VALID,0.710938,
2011-06-12, 03:00:04,VALID,999.169,VALID,0,VALID,91.6394,VALID,0,VALID,23.0769,VALID,52,VALID,0.647266,
2011-06-12, 03:01:04,VALID,999.175,VALID,0,VALID,91.6241,VALID,0,VALID,23.0361,VALID,52,VALID,0.570703,
2011-06-12, 03:02:04,VALID,999.193,VALID,0,VALID,91.6241,VALID,0,VALID,23.0361,VALID,52,VALID,0.0121094,
2011-06-12, 03:03:04,VALID,999.232,VALID,0,VALID,91.6623,VALID,0,VALID,23.0378,VALID,52,VALID,0,
2011-06-12, 03:04:04,VALID,999.204,VALID,0,VALID,91.647,VALID,0,VALID,23.0183,VALID,52,VALID,0,
2011-06-12, 03:05:04,VALID,999.192,VALID,0,VALID,91.6546,VALID,0,VALID,23.0183,VALID,52,VALID,0,
2011-06-12, 03:06:04,VALID,999.181,VALID,0,VALID,91.6699,VALID,0,VALID,22.9988,VALID,52,VALID,0,
2011-06-12, 03:07:04,VALID,999.193,VALID,0,VALID,91.7004,VALID,0,VALID,22.9581,VALID,52,VALID,0,
2011-06-12, 03:08:04,VALID,999.191,VALID,0,VALID,91.7462,VALID,0,VALID,22.9793,VALID,52,VALID,0,
2011-06-12, 03:09:04,VALID,999.191,VALID,0,VALID,91.792,VALID,0,VALID,22.9581,VALID,53,VALID,0.624219,
2011-06-12, 03:10:04,VALID,999.178,VALID,0,VALID,91.8072,VALID,0,VALID,22.9793,VALID,53,VALID,0.724219,
2011-06-12, 03:11:04,VALID,999.187,VALID,0,VALID,91.8377,VALID,0,VALID,22.9793,VALID,78,VALID,0.739062,
2011-06-12, 03:12:04,VALID,999.219,VALID,0,VALID,91.8988,VALID,0,VALID,22.9988,VALID,78,VALID,0.610937,
2011-06-12, 03:13:04,VALID,999.2,VALID,0,VALID,91.9598,VALID,0,VALID,22.9776,VALID,78,VALID,0.587109,
2011-06-12, 03:14:04,VALID,999.221,VALID,0,VALID,92.0132,VALID,0,VALID,23.0201,VALID,78,VALID,0.433203,
2011-06-12, 03:15:04,VALID,999.213,VALID,0,VALID,92.0209,VALID,0,VALID,23.0183,VALID,78,VALID,0.458203,
2011-06-12, 03:16:04,VALID,999.216,VALID,0,VALID,92.0514,VALID,0,VALID,22.9988,VALID,78,VALID,0.617578,
2011-06-12, 03:17:04,VALID,999.198,VALID,0,VALID,92.0285,VALID,0,VALID,22.9793,VALID,103,VALID,0.650391,
2011-06-12, 03:18:04,VALID,999.22,VALID,0,VALID,91.9903,VALID,0,VALID,22.9598,VALID,119,VALID,0.739453,
2011-06-12, 03:19:04,VALID,999.192,VALID,0,VALID,91.853,VALID,0,VALID,22.9385,VALID,129,VALID,0.711328,
2011-06-12, 03:20:04,VALID,999.203,VALID,0,VALID,91.708,VALID,0,VALID,22.9988,VALID,129,VALID,0.649609,
2011-06-12, 03:21:04,VALID,999.216,VALID,0,VALID,91.5707,VALID,0,VALID,23.0183,VALID,129,VALID,0.596094,
2011-06-12, 03:22:04,VALID,999.194,VALID,0,VALID,91.441,VALID,0,VALID,23.0573,VALID,129,VALID,0.487891,
2011-06-12, 03:23:04,VALID,999.185,VALID,0,VALID,91.2503,VALID,0,VALID,23.0573,VALID,129,VALID,0.49375,
2011-06-12, 03:24:04,VALID,999.201,VALID,0,VALID,91.1206,VALID,0,VALID,23.0361,VALID,129,VALID,0.553125,
2011-06-12, 03:25:04,VALID,999.193,VALID,0,VALID,91.0137,VALID,0,VALID,23.0769,VALID,129,VALID,0.482031,
2011-06-12, 03:26:04,VALID,999.178,VALID,0,VALID,90.9832,VALID,0,VALID,23.0964,VALID,129,VALID,0.663672,
2011-06-12, 03:27:04,VALID,999.175,VALID,0,VALID,90.9527,VALID,0,VALID,23.0964,VALID,129,VALID,0.530469,
2011-06-12, 03:28:04,VALID,999.179,VALID,0,VALID,90.9603,VALID,0,VALID,23.0964,VALID,129,VALID,0.603906,
2011-06-12, 03:29:04,VALID,999.154,VALID,0,VALID,90.9603,VALID,0,VALID,23.0573,VALID,129,VALID,0.555469,
2011-06-12, 03:30:04,VALID,999.133,VALID,0,VALID,90.968,VALID,0,VALID,23.0573,VALID,129,VALID,0.448047,
2011-06-12, 03:31:04,VALID,999.138,VALID,0,VALID,90.9909,VALID,0,VALID,23.0166,VALID,129,VALID,0.442969,
2011-06-12, 03:32:04,VALID,999.146,VALID,0,VALID,91.0214,VALID,0,VALID,22.9971,VALID,129,VALID,0.5,
2011-06-12, 03:33:04,VALID,999.158,VALID,0,VALID,91.0443,VALID,0,VALID,22.9988,VALID,129,VALID,0.398438,
2011-06-12, 03:34:04,VALID,999.147,VALID,0,VALID,91.0977,VALID,0.112286,VALID,22.9988,VALID,129,VALID,0.239453,
2011-06-12, 03:35:04,VALID,999.149,VALID,0,VALID,91.1358,VALID,0,VALID,22.9988,VALID,129,VALID,0,
2011-06-12, 03:36:04,VALID,999.134,VALID,0,VALID,91.1968,VALID,0.112286,VALID,22.9988,VALID,129,VALID,0,
2011-06-12, 03:37:04,VALID,999.134,VALID,0,VALID,91.2197,VALID,0,VALID,22.9581,VALID,129,VALID,0,
2011-06-12, 03:38:04,VALID,999.199,VALID,0,VALID,91.2426,VALID,0,VALID,22.9403,VALID,129,VALID,0,
2011-06-12, 03:39:04,VALID,999.166,VALID,0,VALID,91.3189,VALID,0,VALID,22.9598,VALID,129,VALID,0,
2011-06-12, 03:40:04,VALID,999.146,VALID,0,VALID,91.3647,VALID,0.112286,VALID,22.9385,VALID,129,VALID,0,
2011-06-12, 03:41:04,VALID,999.143,VALID,0,VALID,91.4334,VALID,0.112286,VALID,22.9793,VALID,129,VALID,0,
2011-06-12, 03:42:04,VALID,999.14,VALID,0,VALID,91.4563,VALID,0,VALID,22.9581,VALID,129,VALID,0,
2011-06-12, 03:43:04,VALID,999.132,VALID,0,VALID,91.4181,VALID,0,VALID,22.9793,VALID,129,VALID,0,
2011-06-12, 03:44:04,VALID,999.151,VALID,0,VALID,91.3876,VALID,0,VALID,22.9793,VALID,129,VALID,0,
2011-06-12, 03:45:04,VALID,999.164,VALID,0,VALID,91.3418,VALID,0,VALID,22.9988,VALID,129,VALID,0,
2011-06-12, 03:46:04,VALID,999.158,VALID,0,VALID,91.3037,VALID,0,VALID,22.9988,VALID,129,VALID,0,
2011-06-12, 03:47:04,VALID,999.171,VALID,0,VALID,91.2045,VALID,0.112286,VALID,23.0378,VALID,129,VALID,0,
2011-06-12, 03:48:04,VALID,999.172,VALID,0,VALID,91.1053,VALID,0,VALID,23.0378,VALID,129,VALID,0,
2011-06-12, 03:49:04,VALID,999.146,VALID,0,VALID,90.968,VALID,0,VALID,23.0378,VALID,129,VALID,0,